{"data":{"norad_id":64923,"epoch":"2026-05-24T20:51:31.466880Z","epoch_age_seconds":79673,"freshness":"FRESH","line1":"1 64923U 25157V   26144.86911420  .00040322  00000+0  13642-2 0  9990","line2":"2 64923  53.1597 352.0754 0001466 119.1771 240.9376 15.30246807 47789","mean_motion":15.30246807,"eccentricity":0.0001466,"inclination_deg":53.1597,"raan_deg":352.0754,"arg_perigee_deg":119.1771,"mean_anomaly_deg":240.9376,"bstar":0.0013642,"rev_number":4778,"period_min":94.102467223772,"perigee_km":474.07063479127,"apogee_km":476.07999664224,"semimajor_km":6853.2123157168,"source":"CELESTRAK","updated_at":"2026-05-25T13:38:20.624859Z"}}